| time (UTC) | temp C | wind direction | speed KPH | gust KPH | rain 1hr cm | rain 24hr cm | rain mn cm | humidity % | barometer mb |
| 20260508122804 | 17 | 137 | 9.7 | 19.3 | 0.00 | 0.08 | 0.00 | 55 | 1012.4 |
| 20260508122307 | 17 | 128 | 9.7 | 22.5 | 0.00 | 0.10 | 0.00 | 58 | 1012.5 |
| 20260508121804 | 17 | 152 | 11.3 | 22.5 | 0.00 | 0.13 | 0.00 | 56 | 1012.1 |
| 20260508121303 | 17 | 156 | 12.9 | 24.1 | 0.00 | 0.15 | 0.00 | 58 | 1012.3 |
| 20260508120804 | 17 | 126 | 14.5 | 24.1 | 0.00 | 0.20 | 0.00 | 57 | 1012.4 |
| 20260508120304 | 17 | 100 | 11.3 | 19.3 | 0.00 | 0.25 | 0.00 | 56 | 1012.4 |
| 20260508115805 | 17 | 138 | 8.0 | 16.1 | 0.00 | 0.30 | 0.00 | 59 | 1012.5 |
| 20260508115306 | 17 | 82 | 9.7 | 22.5 | 0.00 | 0.33 | 0.00 | 58 | 1012.8 |
| 20260508114805 | 16 | 141 | 8.0 | 16.1 | 0.00 | 0.33 | 0.00 | 60 | 1012.8 |
| 20260508114304 | 16 | 133 | 11.3 | 24.1 | 0.00 | 0.33 | 0.00 | 62 | 1013.2 |
| 20260508113805 | 16 | 174 | 11.3 | 24.1 | 0.00 | 0.33 | 0.00 | 60 | 1013.0 |
| 20260508113304 | 16 | 113 | 8.0 | 22.5 | 0.00 | 0.33 | 0.00 | 62 | 1013.2 |
| 20260508112804 | 16 | 100 | 9.7 | 22.5 | 0.00 | 0.33 | 0.00 | 61 | 1013.2 |
| 20260508112307 | 16 | 138 | 9.7 | 27.4 | 0.00 | 0.33 | 0.00 | 64 | 1013.4 |
| 20260508111804 | 16 | 119 | 11.3 | 20.9 | 0.00 | 0.33 | 0.00 | 63 | 1013.5 |
| 20260508110804 | 15 | 152 | 14.5 | 25.7 | 0.00 | 0.33 | 0.00 | 64 | 1013.8 |
| 20260508110304 | 15 | 149 | 11.3 | 20.9 | 0.00 | 0.33 | 0.00 | 65 | 1013.6 |
| 20260508105804 | 15 | 151 | 9.7 | 20.9 | 0.00 | 0.33 | 0.00 | 63 | 1013.8 |
| 20260508105306 | 16 | 136 | 11.3 | 20.9 | 0.00 | 0.36 | 0.00 | 62 | 1013.7 |
| 20260508104803 | 16 | 150 | 9.7 | 24.1 | 0.00 | 0.36 | 0.00 | 64 | 1013.7 |
| 20260508104303 | 16 | 138 | 9.7 | 20.9 | 0.00 | 0.38 | 0.00 | 63 | 1013.6 |
| 20260508103804 | 16 | 119 | 11.3 | 20.9 | 0.00 | 0.38 | 0.00 | 64 | 1013.6 |
| 20260508103304 | 15 | 140 | 8.0 | 19.3 | 0.00 | 0.38 | 0.00 | 64 | 1013.8 |
| 20260508102804 | 15 | 142 | 14.5 | 25.7 | 0.00 | 0.38 | 0.00 | 65 | 1013.7 |
| 20260508102306 | 15 | 142 | 11.3 | 20.9 | 0.00 | 0.38 | 0.00 | 65 | 1013.8 |
| 20260508101803 | 15 | 158 | 9.7 | 19.3 | 0.00 | 0.38 | 0.00 | 64 | 1013.7 |
| 20260508101304 | 15 | 182 | 11.3 | 19.3 | 0.00 | 0.38 | 0.00 | 66 | 1013.8 |
| 20260508100304 | 15 | 144 | 11.3 | 20.9 | 0.00 | 0.38 | 0.00 | 64 | 1014.0 |
| 20260508095803 | 14 | 102 | 8.0 | 14.5 | 0.00 | 0.38 | 0.00 | 69 | 1013.9 |
| 20260508095306 | 14 | 135 | 9.7 | 19.3 | 0.00 | 0.38 | 0.00 | 68 | 1014.0 |
| 20260508094804 | 14 | 138 | 11.3 | 20.9 | 0.00 | 0.38 | 0.00 | 70 | 1013.9 |
| 20260508094304 | 13 | 124 | 9.7 | 24.1 | 0.00 | 0.38 | 0.00 | 73 | 1014.0 |
| 20260508093804 | 13 | 128 | 9.7 | 14.5 | 0.00 | 0.38 | 0.00 | 72 | 1014.0 |
| 20260508093304 | 13 | 148 | 11.3 | 24.1 | 0.00 | 0.38 | 0.00 | 73 | 1014.0 |
| 20260508092312 | 13 | 122 | 11.3 | 20.9 | 0.00 | 0.38 | 0.00 | 74 | 1013.9 |
| 20260508091803 | 13 | 138 | 11.3 | 22.5 | 0.00 | 0.38 | 0.00 | 74 | 1013.8 |
| 20260508091303 | 13 | 169 | 11.3 | 24.1 | 0.00 | 0.38 | 0.00 | 75 | 1013.6 |
| 20260508090803 | 13 | 128 | 9.7 | 16.1 | 0.00 | 0.38 | 0.00 | 75 | 1013.5 |
| 20260508090304 | 13 | 138 | 9.7 | 20.9 | 0.00 | 0.38 | 0.00 | 77 | 1013.6 |
| 20260508084803 | 12 | 145 | 8.0 | 14.5 | 0.00 | 0.38 | 0.00 | 79 | 1013.4 |
| 20260508084304 | 12 | 115 | 9.7 | 19.3 | 0.00 | 0.38 | 0.00 | 78 | 1013.2 |
| 20260508083804 | 12 | 119 | 9.7 | 16.1 | 0.00 | 0.38 | 0.00 | 79 | 1013.4 |
| 20260508083304 | 11 | 132 | 8.0 | 19.3 | 0.00 | 0.38 | 0.00 | 82 | 1013.2 |
| 20260508082306 | 11 | 140 | 11.3 | 16.1 | 0.00 | 0.38 | 0.00 | 85 | 1013.5 |
| 20260508081303 | 10 | 115 | 6.4 | 14.5 | 0.00 | 0.38 | 0.00 | 88 | 1013.6 |
| 20260508080804 | 10 | 117 | 4.8 | 14.5 | 0.00 | 0.38 | 0.00 | 89 | 1013.4 |
| 20260508080304 | 10 | 124 | 6.4 | 14.5 | 0.00 | 0.38 | 0.00 | 89 | 1013.3 |
| 20260508075803 | 10 | 134 | 6.4 | 12.9 | 0.00 | 0.38 | 0.00 | 89 | 1013.8 |
| 20260508075308 | 10 | 119 | 4.8 | 11.3 | 0.00 | 0.38 | 0.00 | 90 | 1013.7 |
| 20260508074804 | 10 | 128 | 8.0 | 12.9 | 0.00 | 0.38 | 0.00 | 90 | 1013.8 |
| 20260508073304 | 10 | 116 | 4.8 | 12.9 | 0.00 | 0.38 | 0.00 | 90 | 1013.6 |
| 20260508072803 | 10 | 117 | 4.8 | 11.3 | 0.00 | 0.38 | 0.00 | 91 | 1013.6 |
| 20260508072307 | 9 | 44 | 3.2 | 14.5 | 0.00 | 0.38 | 0.00 | 92 | 1013.7 |
| 20260508071803 | 9 | 108 | 3.2 | 14.5 | 0.00 | 0.38 | 0.00 | 92 | 1013.6 |
| 20260508071303 | 8 | 130 | 4.8 | 12.9 | 0.00 | 0.38 | 0.00 | 93 | 1013.5 |
| 20260508070804 | 8 | 113 | 4.8 | 11.3 | 0.00 | 0.38 | 0.00 | 93 | 1013.4 |
| 20260508065803 | 8 | 79 | 3.2 | 11.3 | 0.00 | 0.38 | 0.00 | 93 | 1013.1 |
| 20260508065306 | 8 | 78 | 4.8 | 14.5 | 0.00 | 0.38 | 0.00 | 93 | 1013.4 |
| 20260508063803 | 8 | 64 | 4.8 | 9.7 | 0.00 | 0.38 | 0.00 | 94 | 1013.7 |
| 20260508063303 | 8 | 67 | 4.8 | 9.7 | 0.00 | 0.38 | 0.00 | 94 | 1013.6 |
| 20260508062805 | 8 | 59 | 3.2 | 4.8 | 0.00 | 0.38 | 0.00 | 94 | 1013.6 |
| 20260508062306 | 8 | 68 | 3.2 | 8.0 | 0.00 | 0.38 | 0.00 | 94 | 1013.6 |
| 20260508061804 | 8 | 70 | 3.2 | 8.0 | 0.00 | 0.38 | 0.00 | 94 | 1013.8 |
| 20260508061304 | 8 | 63 | 3.2 | 8.0 | 0.00 | 0.38 | 0.00 | 94 | 1013.5 |
| 20260508060303 | 8 | 32 | 1.6 | 4.8 | 0.00 | 0.38 | 0.00 | 95 | 1013.3 |
| 20260508055804 | 8 | 41 | 3.2 | 8.0 | 0.00 | 0.38 | 0.00 | 95 | 1013.3 |
| 20260508055306 | 8 | 25 | 1.6 | 9.7 | 0.00 | 0.38 | 0.00 | 95 | 1013.2 |
| 20260508054804 | 8 | 18 | 4.8 | 8.0 | 0.00 | 0.38 | 0.00 | 95 | 1013.1 |
| 20260508054303 | 8 | 27 | 1.6 | 3.2 | 0.00 | 0.38 | 0.00 | 95 | 1013.2 |
| 20260508053804 | 8 | 32 | 1.6 | 1.6 | 0.00 | 0.38 | 0.00 | 95 | 1013.3 |
| 20260508052306 | 7 | 41 | 0.0 | 1.6 | 0.00 | 0.38 | 0.00 | 95 | 1013.3 |
| 20260508051804 | 7 | 72 | 0.0 | 3.2 | 0.00 | 0.38 | 0.00 | 95 | 1013.3 |
| 20260508050804 | 7 | 264 | 1.6 | 4.8 | 0.00 | 0.38 | 0.00 | 95 | 1013.1 |
| 20260508050304 | 7 | 294 | 1.6 | 4.8 | 0.00 | 0.38 | 0.00 | 95 | 1013.2 |
| 20260508045803 | 8 | 337 | 3.2 | 8.0 | 0.00 | 0.38 | 0.00 | 94 | 1012.9 |
| 20260508044803 | 8 | 68 | 3.2 | 9.7 | 0.00 | 0.38 | 0.00 | 94 | 1012.6 |
| 20260508044304 | 8 | 71 | 4.8 | 12.9 | 0.00 | 0.38 | 0.00 | 94 | 1012.7 |
| 20260508043803 | 8 | 113 | 3.2 | 12.9 | 0.00 | 0.38 | 0.00 | 94 | 1012.3 |
| 20260508043303 | 7 | 36 | 4.8 | 12.9 | 0.00 | 0.38 | 0.00 | 94 | 1012.2 |
| 20260508042803 | 7 | 104 | 6.4 | 19.3 | 0.00 | 0.38 | 0.00 | 94 | 1012.2 |
| 20260508042306 | 7 | 98 | 4.8 | 14.5 | 0.00 | 0.38 | 0.00 | 94 | 1012.3 |
| 20260508041804 | 7 | 110 | 6.4 | 14.5 | 0.00 | 0.38 | 0.00 | 94 | 1012.2 |
| 20260508041304 | 7 | 92 | 4.8 | 12.9 | 0.00 | 0.38 | 0.00 | 94 | 1012.4 |
| 20260508040803 | 7 | 124 | 8.0 | 14.5 | 0.00 | 0.38 | 0.00 | 94 | 1012.6 |
| 20260508035803 | 7 | 78 | 8.0 | 14.5 | 0.00 | 0.38 | 0.00 | 93 | 1012.3 |
| 20260508035306 | 7 | 100 | 6.4 | 14.5 | 0.00 | 0.38 | 0.00 | 93 | 1012.4 |
| 20260508034304 | 7 | 134 | 8.0 | 14.5 | 0.00 | 0.38 | 0.00 | 92 | 1012.5 |
| 20260508033804 | 7 | 125 | 4.8 | 12.9 | 0.00 | 0.38 | 0.00 | 92 | 1012.5 |
| 20260508033304 | 7 | 133 | 4.8 | 12.9 | 0.00 | 0.38 | 0.00 | 92 | 1012.3 |
| 20260508032804 | 7 | 82 | 4.8 | 14.5 | 0.00 | 0.38 | 0.00 | 92 | 1012.3 |
| 20260508031804 | 7 | 119 | 4.8 | 12.9 | 0.00 | 0.38 | 0.00 | 92 | 1012.1 |
| 20260508031304 | 7 | 108 | 8.0 | 14.5 | 0.00 | 0.38 | 0.00 | 91 | 1012.1 |
| 20260508030304 | 7 | 114 | 8.0 | 14.5 | 0.00 | 0.38 | 0.00 | 90 | 1012.1 |
| 20260508025804 | 7 | 117 | 6.4 | 12.9 | 0.00 | 0.38 | 0.00 | 91 | 1012.1 |
| 20260508025306 | 7 | 82 | 4.8 | 12.9 | 0.00 | 0.38 | 0.00 | 90 | 1012.1 |
| 20260508024804 | 7 | 132 | 6.4 | 14.5 | 0.00 | 0.38 | 0.00 | 90 | 1012.2 |
| 20260508024304 | 7 | 103 | 8.0 | 12.9 | 0.00 | 0.38 | 0.00 | 90 | 1012.1 |
| 20260508023804 | 7 | 152 | 8.0 | 14.5 | 0.00 | 0.38 | 0.00 | 90 | 1012.3 |
| 20260508023304 | 7 | 96 | 4.8 | 12.9 | 0.00 | 0.38 | 0.00 | 90 | 1012.1 |
| 20260508022804 | 7 | 63 | 4.8 | 16.1 | 0.00 | 0.38 | 0.00 | 90 | 1012.4 |
| 20260508022307 | 7 | 81 | 4.8 | 11.3 | 0.00 | 0.38 | 0.00 | 90 | 1012.3 |
| 20260508021803 | 7 | 89 | 3.2 | 9.7 | 0.00 | 0.38 | 0.00 | 90 | 1012.6 |
| 20260508021304 | 7 | 73 | 4.8 | 9.7 | 0.00 | 0.38 | 0.00 | 90 | 1012.6 |
| 20260508020804 | 7 | 115 | 3.2 | 8.0 | 0.00 | 0.38 | 0.00 | 90 | 1012.7 |
| 20260508015803 | 7 | 99 | 3.2 | 8.0 | 0.00 | 0.38 | 0.00 | 90 | 1013.5 |
| 20260508015306 | 7 | 166 | 1.6 | 3.2 | 0.00 | 0.38 | 0.00 | 90 | 1013.8 |
| 20260508014804 | 7 | 257 | 1.6 | 4.8 | 0.00 | 0.38 | 0.00 | 89 | 1013.6 |
| 20260508014303 | 8 | 108 | 1.6 | 9.7 | 0.00 | 0.38 | 0.00 | 89 | 1013.7 |
| 20260508013804 | 8 | 120 | 3.2 | 11.3 | 0.00 | 0.38 | 0.00 | 89 | 1013.8 |
| 20260508013304 | 7 | 112 | 3.2 | 11.3 | 0.00 | 0.38 | 0.00 | 90 | 1013.7 |
| 20260508012307 | 7 | 51 | 1.6 | 4.8 | 0.00 | 0.38 | 0.00 | 90 | 1013.8 |
| 20260508011803 | 7 | 66 | 1.6 | 4.8 | 0.00 | 0.38 | 0.00 | 90 | 1013.8 |
| 20260508011304 | 7 | 18 | 1.6 | 4.8 | 0.00 | 0.38 | 0.00 | 90 | 1013.9 |
| 20260508010804 | 7 | 359 | 1.6 | 4.8 | 0.00 | 0.38 | 0.00 | 90 | 1013.9 |
| 20260508010304 | 7 | 25 | 1.6 | 4.8 | 0.00 | 0.38 | 0.00 | 89 | 1014.0 |
| 20260508005803 | 7 | 7 | 1.6 | 4.8 | 0.00 | 0.38 | 0.00 | 89 | 1014.0 |
| 20260508005306 | 7 | 9 | 4.8 | 8.0 | 0.00 | 0.38 | 0.00 | 90 | 1014.3 |
| 20260508004804 | 7 | 349 | 4.8 | 8.0 | 0.00 | 0.38 | 0.00 | 90 | 1014.3 |
| 20260508004304 | 7 | 337 | 4.8 | 11.3 | 0.00 | 0.38 | 0.00 | 91 | 1014.2 |
| 20260508003804 | 7 | 1 | 3.2 | 8.0 | 0.00 | 0.38 | 0.00 | 91 | 1014.5 |
| 20260508003303 | 7 | 323 | 3.2 | 4.8 | 0.00 | 0.38 | 0.00 | 91 | 1014.6 |
| 20260508002803 | 7 | 4 | 4.8 | 8.0 | 0.00 | 0.38 | 0.00 | 91 | 1014.4 |
| 20260508001304 | 7 | 354 | 1.6 | 3.2 | 0.00 | 0.38 | 0.00 | 91 | 1015.0 |
| 20260508000804 | 7 | 10 | 1.6 | 4.8 | 0.00 | 0.38 | 0.00 | 91 | 1015.1 |
| 20260508000305 | 7 | 28 | 1.6 | 3.2 | 0.00 | 0.38 | 0.00 | 91 | 1014.8 |
| 20260507235804 | 7 | 40 | 1.6 | 3.2 | 0.00 | 0.38 | 0.00 | 91 | 1015.0 |
| 20260507235307 | 7 | 27 | 1.6 | 3.2 | 0.00 | 0.38 | 0.00 | 91 | 1014.9 |
| 20260507234803 | 7 | 38 | 1.6 | 3.2 | 0.00 | 0.38 | 0.00 | 92 | 1014.8 |
| 20260507234304 | 7 | 120 | 1.6 | 4.8 | 0.00 | 0.38 | 0.00 | 92 | 1015.1 |
| 20260507233304 | 7 | 329 | 0.0 | 1.6 | 0.00 | 0.38 | 0.00 | 92 | 1014.5 |
| 20260507232803 | 7 | 359 | 1.6 | 3.2 | 0.00 | 0.38 | 0.00 | 92 | 1014.5 |
| 20260507232306 | 7 | 12 | 1.6 | 3.2 | 0.00 | 0.38 | 0.00 | 92 | 1014.5 |
| 20260507231804 | 7 | 357 | 3.2 | 4.8 | 0.00 | 0.38 | 0.00 | 91 | 1014.5 |
| 20260507231303 | 7 | 11 | 3.2 | 8.0 | 0.00 | 0.38 | 0.00 | 92 | 1014.4 |
| 20260507230804 | 7 | 9 | 3.2 | 9.7 | 0.00 | 0.38 | 0.00 | 92 | 1014.6 |
| 20260507225804 | 7 | 20 | 3.2 | 9.7 | 0.00 | 0.38 | 0.00 | 92 | 1014.8 |
| 20260507224804 | 7 | 9 | 1.6 | 3.2 | 0.00 | 0.38 | 0.00 | 92 | 1014.8 |
| 20260507224304 | 7 | 8 | 1.6 | 3.2 | 0.00 | 0.38 | 0.00 | 91 | 1014.9 |
| 20260507223804 | 7 | 19 | 1.6 | 4.8 | 0.00 | 0.38 | 0.00 | 91 | 1015.0 |
| 20260507223304 | 7 | 45 | 1.6 | 3.2 | 0.00 | 0.38 | 0.00 | 91 | 1014.8 |
| 20260507222306 | 7 | 44 | 3.2 | 8.0 | 0.00 | 0.38 | 0.00 | 91 | 1014.7 |
| 20260507221804 | 7 | 59 | 3.2 | 8.0 | 0.00 | 0.38 | 0.00 | 91 | 1014.6 |
| 20260507221304 | 7 | 50 | 4.8 | 8.0 | 0.00 | 0.38 | 0.00 | 91 | 1014.7 |
| 20260507220804 | 7 | 43 | 3.2 | 8.0 | 0.00 | 0.38 | 0.00 | 92 | 1014.7 |
| 20260507220304 | 7 | 50 | 3.2 | 4.8 | 0.00 | 0.38 | 0.00 | 92 | 1014.8 |
| 20260507215803 | 7 | 15 | 3.2 | 4.8 | 0.00 | 0.38 | 0.38 | 92 | 1014.8 |
| 20260507215306 | 7 | 35 | 3.2 | 8.0 | 0.00 | 0.38 | 0.38 | 92 | 1014.6 |
| 20260507214804 | 7 | 35 | 3.2 | 8.0 | 0.00 | 0.38 | 0.38 | 91 | 1014.6 |
| 20260507214304 | 7 | 47 | 3.2 | 4.8 | 0.00 | 0.38 | 0.38 | 92 | 1014.8 |
| 20260507213804 | 7 | 8 | 1.6 | 4.8 | 0.00 | 0.38 | 0.38 | 92 | 1014.8 |
| 20260507213304 | 7 | 4 | 1.6 | 4.8 | 0.00 | 0.38 | 0.38 | 91 | 1014.7 |
| 20260507212804 | 8 | 343 | 3.2 | 4.8 | 0.00 | 0.38 | 0.38 | 91 | 1014.4 |
| 20260507212306 | 8 | 0 | 1.6 | 3.2 | 0.00 | 0.38 | 0.38 | 91 | 1014.2 |
| 20260507211803 | 8 | 27 | 1.6 | 3.2 | 0.00 | 0.38 | 0.38 | 91 | 1014.3 |
| 20260507211303 | 8 | 351 | 0.0 | 1.6 | 0.00 | 0.38 | 0.38 | 91 | 1014.5 |
| 20260507210804 | 8 | 352 | 0.0 | 3.2 | 0.00 | 0.38 | 0.38 | 90 | 1014.5 |
| 20260507210304 | 8 | 40 | 1.6 | 3.2 | 0.00 | 0.38 | 0.38 | 90 | 1014.4 |
| 20260507205803 | 8 | 30 | 1.6 | 4.8 | 0.00 | 0.38 | 0.38 | 90 | 1014.5 |
| 20260507203804 | 8 | 51 | 0.0 | 0.0 | 0.00 | 0.38 | 0.38 | 88 | 1013.9 |
| 20260507203304 | 8 | 334 | 0.0 | 1.6 | 0.00 | 0.38 | 0.38 | 88 | 1014.0 |
| 20260507202804 | 8 | 59 | 1.6 | 3.2 | 0.00 | 0.38 | 0.38 | 87 | 1014.0 |
| 20260507201803 | 9 | 56 | 1.6 | 3.2 | 0.00 | 0.38 | 0.38 | 86 | 1013.8 |
| 20260507200803 | 9 | 72 | 1.6 | 3.2 | 0.00 | 0.38 | 0.38 | 86 | 1013.7 |
| 20260507195804 | 9 | 171 | 0.0 | 3.2 | 0.00 | 0.38 | 0.38 | 86 | 1013.4 |
| 20260507194804 | 10 | 126 | 1.6 | 1.6 | 0.00 | 0.38 | 0.38 | 85 | 1013.1 |
| 20260507193804 | 10 | 161 | 0.0 | 1.6 | 0.00 | 0.38 | 0.38 | 84 | 1013.0 |
| 20260507192804 | 10 | 44 | 1.6 | 3.2 | 0.00 | 0.38 | 0.38 | 83 | 1012.9 |
| 20260507192306 | 10 | 31 | 1.6 | 4.8 | 0.00 | 0.38 | 0.38 | 82 | 1012.9 |
| 20260507191803 | 10 | 90 | 1.6 | 4.8 | 0.00 | 0.38 | 0.38 | 81 | 1012.6 |
| 20260507191303 | 10 | 77 | 0.0 | 1.6 | 0.00 | 0.38 | 0.38 | 80 | 1012.8 |
| 20260507190803 | 11 | 128 | 1.6 | 4.8 | 0.00 | 0.38 | 0.38 | 80 | 1012.5 |
| 20260507190303 | 11 | 32 | 3.2 | 8.0 | 0.00 | 0.38 | 0.38 | 79 | 1012.4 |
| 20260507185804 | 11 | 73 | 4.8 | 8.0 | 0.00 | 0.38 | 0.38 | 78 | 1012.1 |
| 20260507185306 | 11 | 32 | 3.2 | 11.3 | 0.00 | 0.38 | 0.38 | 76 | 1012.1 |
| 20260507184803 | 11 | 98 | 3.2 | 8.0 | 0.00 | 0.38 | 0.38 | 75 | 1012.0 |
| 20260507183804 | 12 | 96 | 1.6 | 11.3 | 0.00 | 0.38 | 0.38 | 74 | 1012.0 |
| 20260507183304 | 12 | 54 | 3.2 | 12.9 | 0.00 | 0.38 | 0.38 | 74 | 1011.9 |
| 20260507182804 | 12 | 32 | 4.8 | 11.3 | 0.00 | 0.38 | 0.38 | 74 | 1011.9 |
| 20260507182306 | 12 | 101 | 4.8 | 19.3 | 0.00 | 0.38 | 0.38 | 73 | 1011.7 |
| 20260507181304 | 12 | 122 | 4.8 | 14.5 | 0.00 | 0.38 | 0.38 | 72 | 1011.9 |
| 20260507180804 | 12 | 95 | 6.4 | 12.9 | 0.00 | 0.38 | 0.38 | 72 | 1011.7 |
| 20260507180304 | 12 | 67 | 4.8 | 11.3 | 0.00 | 0.38 | 0.38 | 72 | 1011.7 |
| 20260507175804 | 12 | 109 | 4.8 | 14.5 | 0.00 | 0.38 | 0.38 | 72 | 1011.8 |
| 20260507175306 | 12 | 119 | 8.0 | 12.9 | 0.00 | 0.38 | 0.38 | 71 | 1012.1 |
| 20260507174804 | 12 | 118 | 4.8 | 12.9 | 0.00 | 0.38 | 0.38 | 71 | 1012.0 |
| 20260507174304 | 12 | 120 | 9.7 | 16.1 | 0.00 | 0.38 | 0.38 | 70 | 1012.1 |
| 20260507173804 | 12 | 95 | 4.8 | 11.3 | 0.00 | 0.38 | 0.38 | 71 | 1012.0 |
| 20260507173304 | 13 | 144 | 6.4 | 12.9 | 0.00 | 0.38 | 0.38 | 69 | 1012.0 |
| 20260507172804 | 12 | 121 | 4.8 | 14.5 | 0.00 | 0.38 | 0.38 | 70 | 1012.0 |
| 20260507172307 | 13 | 110 | 4.8 | 12.9 | 0.00 | 0.38 | 0.38 | 70 | 1011.9 |
| 20260507171804 | 12 | 59 | 4.8 | 9.7 | 0.00 | 0.38 | 0.38 | 70 | 1012.2 |
| 20260507171303 | 12 | 109 | 4.8 | 9.7 | 0.00 | 0.38 | 0.38 | 71 | 1012.4 |
| 20260507170803 | 12 | 147 | 3.2 | 11.3 | 0.00 | 0.38 | 0.38 | 73 | 1012.4 |
| 20260507170304 | 12 | 149 | 4.8 | 14.5 | 0.00 | 0.38 | 0.38 | 73 | 1012.5 |
| 20260507165804 | 12 | 117 | 3.2 | 11.3 | 0.00 | 0.38 | 0.38 | 72 | 1012.5 |
| 20260507164305 | 12 | 109 | 3.2 | 8.0 | 0.00 | 0.38 | 0.38 | 72 | 1012.6 |
| 20260507163805 | 12 | 124 | 4.8 | 9.7 | 0.00 | 0.38 | 0.38 | 72 | 1012.4 |
| 20260507163305 | 12 | 62 | 3.2 | 11.3 | 0.00 | 0.38 | 0.38 | 72 | 1012.5 |
| 20260507162805 | 12 | 102 | 8.0 | 12.9 | 0.00 | 0.38 | 0.38 | 70 | 1012.4 |
| 20260507162307 | 12 | 90 | 8.0 | 16.1 | 0.00 | 0.38 | 0.38 | 71 | 1012.3 |
| 20260507161805 | 12 | 117 | 8.0 | 16.1 | 0.00 | 0.38 | 0.38 | 72 | 1012.4 |
| 20260507161306 | 12 | 136 | 4.8 | 16.1 | 0.00 | 0.38 | 0.38 | 73 | 1012.7 |
| 20260507160306 | 12 | 104 | 8.0 | 16.1 | 0.00 | 0.38 | 0.38 | 71 | 1012.4 |
| 20260507155805 | 12 | 86 | 8.0 | 16.1 | 0.00 | 0.38 | 0.38 | 70 | 1012.2 |
| 20260507155306 | 12 | 125 | 6.4 | 12.9 | 0.00 | 0.38 | 0.38 | 70 | 1012.3 |
| 20260507154804 | 12 | 77 | 6.4 | 19.3 | 0.00 | 0.38 | 0.38 | 71 | 1012.2 |
| 20260507154304 | 13 | 73 | 8.0 | 14.5 | 0.00 | 0.38 | 0.38 | 70 | 1012.3 |
| 20260507153804 | 13 | 85 | 9.7 | 20.9 | 0.00 | 0.38 | 0.38 | 70 | 1011.9 |
| 20260507153304 | 14 | 66 | 12.9 | 20.9 | 0.00 | 0.38 | 0.38 | 68 | 1012.2 |
| 20260507152804 | 14 | 64 | 9.7 | 20.9 | 0.00 | 0.38 | 0.38 | 68 | 1011.9 |
| 20260507152306 | 14 | 110 | 8.0 | 20.9 | 0.00 | 0.38 | 0.38 | 69 | 1012.0 |
| 20260507151805 | 15 | 63 | 9.7 | 20.9 | 0.00 | 0.38 | 0.38 | 67 | 1011.7 |
| 20260507150805 | 14 | 104 | 9.7 | 20.9 | 0.00 | 0.38 | 0.38 | 67 | 1011.9 |
| 20260507150305 | 13 | 85 | 9.7 | 22.5 | 0.00 | 0.38 | 0.38 | 70 | 1011.7 |
| 20260507145805 | 14 | 81 | 6.4 | 19.3 | 0.00 | 0.38 | 0.38 | 70 | 1011.7 |
| 20260507145307 | 14 | 113 | 8.0 | 16.1 | 0.00 | 0.38 | 0.38 | 72 | 1011.6 |
| 20260507144804 | 13 | 36 | 4.8 | 16.1 | 0.00 | 0.38 | 0.38 | 76 | 1011.9 |
| 20260507143304 | 13 | 92 | 6.4 | 16.1 | 0.00 | 0.38 | 0.38 | 76 | 1012.1 |
| 20260507142804 | 12 | 82 | 8.0 | 16.1 | 0.03 | 0.38 | 0.38 | 80 | 1012.2 |
| 20260507142306 | 12 | 76 | 8.0 | 19.3 | 0.03 | 0.38 | 0.38 | 81 | 1012.2 |
| 20260507141805 | 12 | 71 | 9.7 | 16.1 | 0.03 | 0.38 | 0.38 | 80 | 1012.2 |
| 20260507140805 | 11 | 55 | 8.0 | 12.9 | 0.03 | 0.38 | 0.38 | 84 | 1012.4 |
| 20260507135804 | 10 | 31 | 6.4 | 12.9 | 0.05 | 0.38 | 0.38 | 90 | 1012.6 |
| 20260507135306 | 10 | 22 | 8.0 | 12.9 | 0.05 | 0.38 | 0.38 | 90 | 1012.6 |
| 20260507134305 | 9 | 72 | 6.4 | 14.5 | 0.05 | 0.38 | 0.38 | 91 | 1012.9 |
| 20260507133805 | 9 | 60 | 8.0 | 14.5 | 0.05 | 0.38 | 0.38 | 91 | 1012.8 |
| 20260507133305 | 9 | 40 | 8.0 | 12.9 | 0.05 | 0.38 | 0.38 | 91 | 1012.8 |
| 20260507132805 | 9 | 35 | 4.8 | 11.3 | 0.05 | 0.36 | 0.36 | 92 | 1013.0 |
| 20260507132307 | 9 | 33 | 6.4 | 11.3 | 0.05 | 0.36 | 0.36 | 92 | 1013.3 |
| 20260507131805 | 9 | 355 | 4.8 | 8.0 | 0.08 | 0.36 | 0.36 | 91 | 1013.1 |
| 20260507131305 | 9 | 350 | 3.2 | 8.0 | 0.10 | 0.36 | 0.36 | 91 | 1013.3 |
| 20260507130804 | 9 | 326 | 3.2 | 8.0 | 0.15 | 0.36 | 0.36 | 91 | 1013.4 |
| 20260507130305 | 9 | 323 | 4.8 | 9.7 | 0.18 | 0.33 | 0.33 | 91 | 1013.6 |
| 20260507125805 | 9 | 287 | 4.8 | 11.3 | 0.23 | 0.33 | 0.33 | 91 | 1013.5 |
| 20260507125307 | 9 | 350 | 4.8 | 11.3 | 0.28 | 0.33 | 0.33 | 90 | 1013.7 |
| 20260507124805 | 9 | 331 | 6.4 | 12.9 | 0.28 | 0.33 | 0.33 | 90 | 1013.5 |
| 20260507123804 | 8 | 320 | 4.8 | 11.3 | 0.28 | 0.33 | 0.33 | 91 | 1014.0 |
| 20260507123305 | 8 | 322 | 3.2 | 9.7 | 0.28 | 0.33 | 0.33 | 91 | 1014.0 |